O3B FM16

Last updated on Wed Jun 24 2026 00:03:25 GMT+0000 (Coordinated Universal Time)

1 43232U 18024B 26173.54218048 -.00000023 00000+0 00000+0 0 9994 2 43232 0.0514 6.2494 0002644 82.4842 271.2950 5.00116002151216
UTC large
Height (km)
Speed (km/s)
/
Latitude / Longitude
Inclination (degrees)
Orbital Period (minutes)
Azimuth
Elevation
Range (km)
Doppler Factor

Next 0 passes for location: London (51.5072 / 0.1276)

No passes found over London.
O3B FM16